DELTA 1 DEB, 29183

Orbit data source: Space-Track

DELTA 1 DEB, 29183 is space debris in LEO originally from a launch on Thu, 11 Jan 1968 UTC launched from the Air Force Western Test Range (AFWTR). Debris objects in space refer to the collection of defunct objects orbiting the Earth. Examples of debris include non-operational satellites, rocket bodies, and fragments generated from explosions, collisions, or faulty payload assembly.

Loading next visibility...
DELTA 1 DEB details
Identifier
29183, 1968-002G
Orbit
LEO
Last TLE update2 weeks ago
Origin
Flag of USGSFC (US)
ManufacturerUnknown
MissionSpacecraft
Bus & MotorUnknown
MassUnknown
Launch date (UTC)
1968-01-11 (57 years ago)
Launch vehicleUnknown
Launch site
Air Force Western Test Range (AFWTR)
Object type
Payload
Rocket body
Debris
Shape & HBRUnknown
Radar Cross SectionSmall (<0.1 m²)

Expand to show TLE details & history

TLE from 2 weeks ago
0 DELTA 1 DEB
1 29183U 68002G   24336.87906064  .00003741  00000-0  64033-2 0  9990
2 29183 105.7955 208.9721 0240041 228.5926 148.2313 13.35375456995413
Epoch: 2024-12-01T21:05Z
Definitive object data (Epoch: 2024-12-01T21:05:50.839Z)
Latitude17.51954°
Longitude176.20163°
Altitude1,282.814 km
Speed7.142 km/s
True Right ascension13h 35m 29s
True Declination17° 25' 40"
Sunlit
Object was in daylight at TLE epoch
Visualization TLE readout
Latitude-24.05253°
Longitude-153.44427°
Altitude1,241.556 km
Speed7.182 km/s
Apparent Right ascension18h 24m 00s
Apparent Declination-63° 13' 16"
Sunlit
Object is in daylight
Visualization observer readout
Local Sidereal Time13:39:10
Azimuth151.262° SSE
Elevation-27.486°
Doppler factor1
Orbital elements
Apogee altitude1,304.366 km
Perigee altitude944.188 km
Semi-major axis7,502.414 km
Eccentricity0.0240041
Inclination105.7955°
RAAN208.9721°
Arg. of periapsis228.5926°
True anomaly149.6433°
Mean anomaly148.2313°
Eccentric anomaly148.94087°
Mean motion3.33996 °/min
BSTAR0.0064033
Orbital period107.79 mins
Loading maneuver chart data...
Loading historical data...
Loading historical data...
Loading historical data...
Loading historical data...
Loading historical data...
Loading historical data...
Loading historical data...

DELTA 1 DEB Visibility forecast

Observer location: undefined°, undefined

Span
Click to sort rows by Start time (UTC) header in descending order
Start Az.
Max El. time (UTC)
Max El. Az.
Max El.
End time (UTC)
End Az.
14 mins2024-12-13 15:22:28.149Z147.629° SSE2024-12-13 15:29:28.149Z77.304° E44.142°2024-12-13 15:36:28.149Z340.93° N
9 mins2024-12-13 17:11:28.149Z221.446° SW2024-12-13 17:15:28.149Z259.381° W21.188°2024-12-13 17:20:28.149Z304.644° NW
9 mins2024-12-14 04:30:28.149Z48.574° ENE2024-12-14 04:34:28.149Z96.853° ESE28.764°2024-12-14 04:39:28.149Z162.237° S
10 mins2024-12-14 06:15:28.149Z5.758° NNE2024-12-14 06:20:28.149Z300.803° NW34.303°2024-12-14 06:25:28.149Z236.381° WSW
12 mins2024-12-14 14:47:28.149Z121.538° SE2024-12-14 14:53:28.149Z49.358° ENE35.077°2024-12-14 14:59:28.149Z350.899° N
|